CW9803 Weather Reports


time (UTC)temp
F
wind
direction
speed
knots
gust
knots
rain 1hr
in
rain 24hr
in
rain mn
in
humidity
%
barometer
mb
20260901104527 48 125 0.0 0.0 0.00 0.00 0.00 60 1006.5
20260901104022 48 136 0.0 0.0 0.00 0.00 0.00 61 1006.8
20260901103522 47 144 0.0 0.0 0.00 0.00 0.00 61 1006.9
20260901103017 47 147 0.0 0.0 0.00 0.00 0.00 61 1007.0
20260901102512 47 117 0.0 0.0 0.00 0.00 0.00 62 1006.9
20260901102006 47 116 0.0 0.0 0.00 0.00 0.00 63 1006.9
20260901101501 47 115 0.0 0.0 0.00 0.00 0.00 62 1007.1
20260901100956 47 115 0.0 0.0 0.00 0.00 0.00 62 1006.9
20260901100451 48 115 0.0 0.0 0.00 0.00 0.00 62 1007.0
20260901095949 48 116 0.0 0.0 0.00 0.00 0.00 63 1006.8
20260901095449 48 115 0.0 0.0 0.00 0.00 0.00 66 1007.0
20260901094941 48 115 0.0 0.0 0.00 0.00 0.00 66 1006.8
20260901094441 48 116 0.0 0.0 0.00 0.00 0.00 66 1007.1
20260901093935 48 116 0.0 0.0 0.00 0.00 0.00 66 1007.0
20260901093430 48 116 0.0 0.0 0.00 0.00 0.00 64 1006.9
20260901092925 48 115 0.0 0.0 0.00 0.00 0.00 62 1006.9
20260901092421 48 115 0.0 0.0 0.00 0.00 0.00 61 1007.2
20260901091917 48 115 0.0 0.0 0.00 0.00 0.00 59 1007.2
20260901091416 49 115 0.0 0.0 0.00 0.00 0.00 57 1007.1
20260901090912 49 117 0.0 0.0 0.00 0.00 0.00 59 1007.1
20260901090411 49 116 0.0 0.0 0.00 0.00 0.00 57 1006.9
20260901085907 49 116 0.0 0.0 0.00 0.00 0.00 57 1007.0
20260901085403 49 115 0.0 0.0 0.00 0.00 0.00 56 1006.8
20260901084859 50 130 0.0 0.0 0.00 0.00 0.00 56 1006.9
20260901084354 50 130 0.0 0.0 0.00 0.00 0.00 57 1007.2
20260901083849 50 132 0.0 0.0 0.00 0.00 0.00 57 1007.1
20260901083344 50 132 0.0 0.0 0.00 0.00 0.00 59 1007.2
20260901082842 50 132 0.0 0.0 0.00 0.00 0.00 59 1007.1
20260901082338 50 132 0.0 0.0 0.00 0.00 0.00 56 1007.2
20260901081833 51 132 0.0 0.0 0.00 0.00 0.00 57 1007.0
20260901081328 51 130 0.0 0.0 0.00 0.00 0.00 57 1007.2
20260901080828 51 131 0.0 0.0 0.00 0.00 0.00 57 1007.2
20260901080322 51 131 0.0 0.0 0.00 0.00 0.00 55 1007.4
20260901075816 51 129 0.0 0.0 0.00 0.00 0.00 54 1007.1
20260901075311 52 126 0.0 0.0 0.00 0.00 0.00 55 1007.3
20260901074807 52 127 0.0 0.0 0.00 0.00 0.00 53 1007.3
20260901074301 52 133 0.0 0.0 0.00 0.00 0.00 52 1007.1
20260901073757 52 135 0.0 0.0 0.00 0.00 0.00 54 1007.2
20260901073252 52 136 0.0 0.0 0.00 0.00 0.00 54 1007.3
20260901072748 52 137 0.0 0.0 0.00 0.00 0.00 54 1007.1
20260901072242 53 136 0.0 0.0 0.00 0.00 0.00 54 1007.1
20260901071736 53 150 0.0 0.0 0.00 0.00 0.00 54 1007.1
20260901071231 52 151 0.0 0.0 0.00 0.00 0.00 56 1007.1
20260901070730 52 140 0.0 0.0 0.00 0.00 0.00 56 1007.2
20260901070225 53 140 0.0 0.0 0.00 0.00 0.00 56 1007.2
20260901065725 53 126 0.0 0.0 0.00 0.00 0.00 51 1007.2
20260901065220 53 123 0.0 0.0 0.00 0.00 0.00 50 1007.0
20260901064716 53 144 0.0 0.0 0.00 0.00 0.00 52 1007.2
20260901064212 53 129 0.0 0.0 0.00 0.00 0.00 51 1007.2
20260901063709 54 124 0.0 0.0 0.00 0.00 0.00 51 1007.3
20260901063205 54 124 0.0 0.0 0.00 0.00 0.00 52 1007.2
20260901062700 54 124 0.0 0.0 0.00 0.00 0.00 52 1007.2
20260901062156 54 152 0.9 0.9 0.00 0.00 0.00 53 1007.1
20260901061652 54 140 0.0 0.0 0.00 0.00 0.00 55 1007.2
20260901061152 55 147 0.0 0.0 0.00 0.00 0.00 54 1007.4
20260901060647 55 131 0.0 0.0 0.00 0.00 0.00 52 1007.3
20260901060142 55 109 0.0 0.9 0.00 0.00 0.00 51 1007.5
20260901055638 55 151 0.0 0.0 0.00 0.00 0.00 52 1007.4
20260901055134 56 154 0.0 0.0 0.00 0.00 0.00 50 1007.4
20260901054631 56 139 0.0 0.0 0.00 0.00 0.00 50 1007.4
20260901054127 57 148 0.9 0.9 0.00 0.00 0.00 49 1007.3
20260901053623 57 128 0.0 0.0 0.00 0.00 0.00 49 1007.4
20260901053118 57 138 0.0 0.0 0.00 0.00 0.00 47 1007.2
20260901052618 57 141 0.0 0.0 0.00 0.00 0.00 47 1007.3
20260901052114 57 151 0.0 0.0 0.00 0.00 0.00 48 1007.7
20260901051613 58 149 0.0 0.0 0.00 0.00 0.00 49 1007.5
20260901051112 58 133 0.0 0.0 0.00 0.00 0.00 48 1007.4
20260901050608 58 147 0.9 0.9 0.00 0.00 0.00 48 1007.4
20260901045557 59 156 0.0 0.0 0.00 0.00 0.00 40 1007.4
20260901045052 60 150 0.0 0.0 0.00 0.00 0.00 39 1007.4
20260901044548 60 127 0.0 0.0 0.00 0.00 0.00 39 1007.5
20260901044044 61 124 0.0 0.0 0.00 0.00 0.00 38 1007.5
20260901043539 61 118 0.0 0.0 0.00 0.00 0.00 37 1007.5
20260901043035 62 169 0.9 0.9 0.00 0.00 0.00 37 1007.4
20260901042534 62 105 0.9 0.9 0.00 0.00 0.00 38 1007.7
20260901042029 62 175 0.9 0.9 0.00 0.00 0.00 38 1007.5
20260901041525 62 148 0.0 0.0 0.00 0.00 0.00 38 1007.8
20260901041019 63 128 0.0 0.0 0.00 0.00 0.00 38 1007.8
20260901040513 63 117 0.0 0.0 0.00 0.00 0.00 36 1007.8
20260901040008 63 123 0.0 0.0 0.00 0.00 0.00 35 1007.3
20260901035506 64 124 0.0 0.0 0.00 0.00 0.00 35 1007.8
20260901035005 64 113 0.9 0.9 0.00 0.00 0.00 34 1007.8
20260901034504 64 171 0.9 0.9 0.00 0.00 0.00 34 1007.5
20260901033959 64 158 1.7 1.7 0.00 0.00 0.00 33 1007.8
20260901033458 64 33 3.5 3.5 0.00 0.00 0.00 34 1007.5
20260901032957 65 114 0.0 0.0 0.00 0.00 0.00 34 1007.5
20260901032452 66 105 0.0 0.0 0.00 0.00 0.00 34 1007.2
20260901031947 66 143 0.0 0.0 0.00 0.00 0.00 34 1007.3
20260901031442 66 143 0.0 0.0 0.00 0.00 0.00 36 1007.1
20260901030941 67 143 0.0 0.0 0.00 0.00 0.00 33 1007.1
20260901030437 68 141 0.0 0.0 0.00 0.00 0.00 33 1007.0
20260901025936 68 141 0.0 0.0 0.00 0.00 0.00 32 1007.1
20260901025432 69 141 0.0 0.0 0.00 0.00 0.00 32 1006.9
20260901024931 69 141 0.0 0.0 0.00 0.00 0.00 31 1007.0
20260901024426 70 141 0.0 0.0 0.00 0.00 0.00 29 1006.8
20260901023924 71 147 0.0 0.0 0.00 0.00 0.00 28 1006.8
20260901023419 71 128 0.0 0.0 0.00 0.00 0.00 28 1006.9
20260901022915 71 116 0.0 0.0 0.00 0.00 0.00 28 1006.8
20260901022410 72 122 0.0 0.0 0.00 0.00 0.00 27 1006.8
20260901021905 72 140 0.0 0.0 0.00 0.00 0.00 27 1006.9
20260901021401 73 140 0.0 0.0 0.00 0.00 0.00 28 1007.1
20260901020855 74 133 0.0 0.0 0.00 0.00 0.00 27 1007.0
20260901020351 76 105 0.9 0.9 0.00 0.00 0.00 27 1007.1
20260901015850 77 188 0.9 0.9 0.00 0.00 0.00 27 1007.0
20260901015347 79 160 0.0 0.0 0.00 0.00 0.00 28 1006.9
20260901014846 80 145 0.0 0.0 0.00 0.00 0.00 27 1006.9
20260901014342 81 149 0.0 0.0 0.00 0.00 0.00 25 1007.2
20260901013837 83 168 0.0 0.0 0.00 0.00 0.00 23 1007.1
20260901013333 84 167 0.9 0.9 0.00 0.00 0.00 20 1007.0
20260901012828 85 137 0.0 0.0 0.00 0.00 0.00 18 1007.2
20260901012323 86 147 0.0 0.0 0.00 0.00 0.00 18 1007.2
20260901011819 85 166 0.9 0.9 0.00 0.00 0.00 16 1007.0
20260901011314 86 161 0.0 0.9 0.00 0.00 0.00 16 1007.0
20260901010808 87 101 1.7 1.7 0.00 0.00 0.00 17 1007.1
20260901010302 87 144 0.0 0.0 0.00 0.00 0.00 15 1007.2
20260901005801 86 151 0.0 0.0 0.00 0.00 0.00 15 1007.1
20260901005256 87 162 0.9 1.7 0.00 0.00 0.00 16 1007.3
20260901004750 88 151 0.0 0.9 0.00 0.00 0.00 16 1007.1
20260901004245 88 146 0.0 0.0 0.00 0.00 0.00 16 1007.3
20260901003744 87 141 0.0 0.0 0.00 0.00 0.00 17 1007.3
20260901003239 86 143 0.0 0.0 0.00 0.00 0.00 15 1007.2
20260901002733 86 155 0.0 0.0 0.00 0.00 0.00 16 1007.7
20260901002228 86 154 0.0 0.9 0.00 0.00 0.00 16 1007.3
20260901001723 87 146 0.0 0.0 0.00 0.00 0.00 16 1007.5
20260901001219 86 150 2.6 2.6 0.00 0.00 0.00 16 1007.4
20260901000714 86 148 0.0 0.0 0.00 0.00 0.00 16 1007.7
20260901000211 87 155 0.0 0.0 0.00 0.00 0.00 16 1007.9
20260831235708 87 156 0.0 0.9 0.00 0.00 0.00 16 1007.5
20260831235204 87 181 0.9 0.9 0.00 0.00 0.00 16 1007.8
20260831234703 86 161 0.0 0.0 0.00 0.00 0.00 16 1007.7
20260831234158 87 196 1.7 2.6 0.00 0.00 0.00 16 1008.0
20260831233653 86 222 1.7 2.6 0.00 0.00 0.00 16 1007.8
20260831233149 86 216 3.5 3.5 0.00 0.00 0.00 16 1007.9
20260831232648 86 137 0.0 0.0 0.00 0.00 0.00 17 1008.0
20260831232145 87 258 0.9 0.9 0.00 0.00 0.00 17 1008.1
20260831231641 87 172 0.9 0.9 0.00 0.00 0.00 17 1008.0
20260831231137 87 328 2.6 2.6 0.00 0.00 0.00 16 1008.1
20260831230632 86 209 0.9 1.7 0.00 0.00 0.00 16 1008.1
20260831230127 86 177 0.9 0.9 0.00 0.00 0.00 16 1008.2
20260831225627 86 241 1.7 1.7 0.00 0.00 0.00 17 1008.4
20260831225122 86 231 0.9 0.9 0.00 0.00 0.00 18 1008.4
20260831224617 87 159 0.9 0.9 0.00 0.00 0.00 17 1008.4
20260831224113 86 166 1.7 2.6 0.00 0.00 0.00 17 1008.5
20260831223603 86 194 1.7 1.7 0.00 0.00 0.00 17 1008.6
20260831223058 87 261 3.5 5.2 0.00 0.00 0.00 18 1008.5
20260831222554 85 172 3.5 3.5 0.00 0.00 0.00 17 1008.8
20260831222048 86 206 3.5 5.2 0.00 0.00 0.00 18 1008.7
20260831221539 86 139 2.6 3.5 0.00 0.00 0.00 17 1009.0
20260831221038 86 172 0.9 0.9 0.00 0.00 0.00 18 1008.8
20260831220533 86 147 3.5 3.5 0.00 0.00 0.00 18 1009.0
20260831220029 86 230 1.7 2.6 0.00 0.00 0.00 18 1009.3
20260831215525 87 181 0.0 0.9 0.00 0.00 0.00 18 1009.3
20260831215020 86 176 3.5 6.1 0.00 0.00 0.00 17 1009.3
20260831214518 86 154 0.9 0.9 0.00 0.00 0.00 19 1009.2
20260831214013 85 218 3.5 3.5 0.00 0.00 0.00 18 1009.6
20260831213510 85 146 3.5 3.5 0.00 0.00 0.00 19 1009.6
20260831213010 85 112 0.9 2.6 0.00 0.00 0.00 20 1009.5
20260831212506 85 156 4.3 6.1 0.00 0.00 0.00 19 1009.8
20260831212001 85 142 0.9 0.9 0.00 0.00 0.00 20 1009.7
20260831211456 84 148 0.9 0.9 0.00 0.00 0.00 18 1009.7
20260831210955 85 178 1.7 5.2 0.00 0.00 0.00 20 1009.7
20260831210450 84 146 4.3 7.0 0.00 0.00 0.00 20 1009.7
20260831205946 82 165 5.2 7.0 0.00 0.00 0.00 21 1009.8
20260831205441 82 113 4.3 5.2 0.00 0.00 0.00 21 1009.9
20260831204937 84 181 9.6 12.2 0.00 0.00 0.00 21 1010.0
20260831204436 84 180 2.6 5.2 0.00 0.00 0.00 21 1010.1
20260831203930 84 170 4.3 6.1 0.00 0.00 0.00 22 1010.0
20260831203424 83 109 1.7 2.6 0.00 0.00 0.00 20 1010.4
20260831202922 83 137 1.7 2.6 0.00 0.00 0.00 21 1010.5
20260831202418 82 189 2.6 3.5 0.00 0.00 0.00 21 1010.4
20260831201912 82 184 8.7 11.3 0.00 0.00 0.00 21 1010.6
20260831201410 81 136 1.7 1.7 0.00 0.00 0.00 22 1010.7
20260831200907 81 191 1.7 1.7 0.00 0.00 0.00 21 1010.7
20260831200402 82 141 0.0 0.9 0.00 0.00 0.00 22 1011.1
20260831195856 81 170 0.9 0.9 0.00 0.00 0.00 23 1010.7
20260831195352 81 133 0.0 0.9 0.00 0.00 0.00 23 1010.7
20260831194847 80 160 3.5 3.5 0.00 0.00 0.00 23 1011.1
20260831194343 78 145 1.7 2.6 0.00 0.00 0.00 24 1011.1
20260831193842 78 178 2.6 3.5 0.00 0.00 0.00 25 1011.3
20260831193337 78 139 3.5 5.2 0.00 0.00 0.00 26 1011.4
20260831192832 77 207 3.5 3.5 0.00 0.00 0.00 26 1011.4
20260831192332 77 168 0.9 1.7 0.00 0.00 0.00 27 1011.6
20260831191828 77 151 0.9 0.9 0.00 0.00 0.00 27 1011.8
20260831191324 76 159 1.7 3.5 0.00 0.00 0.00 28 1011.9
20260831190820 76 172 5.2 6.1 0.00 0.00 0.00 27 1011.9
20260831190319 76 157 1.7 2.6 0.00 0.00 0.00 27 1011.9
20260831185819 76 138 4.3 5.2 0.00 0.00 0.00 27 1012.1
20260831185315 76 140 1.7 1.7 0.00 0.00 0.00 28 1012.1
20260831184814 76 156 3.5 3.5 0.00 0.00 0.00 28 1012.1
20260831184309 75 177 0.9 0.9 0.00 0.00 0.00 29 1012.4
20260831183805 74 138 0.9 1.7 0.00 0.00 0.00 29 1012.2
20260831183304 73 149 0.9 1.7 0.00 0.00 0.00 31 1012.3
20260831182803 73 178 2.6 2.6 0.00 0.00 0.00 30 1012.3
20260831182258 73 160 0.9 0.9 0.00 0.00 0.00 31 1012.5
20260831181753 71 121 0.0 0.0 0.00 0.00 0.00 32 1012.5
20260831181249 72 143 2.6 3.5 0.00 0.00 0.00 31 1012.7
20260831180748 70 77 1.7 2.6 0.00 0.00 0.00 33 1012.9
20260831180238 70 180 2.6 3.5 0.00 0.00 0.00 33 1012.7
20260831175737 69 105 0.9 1.7 0.00 0.00 0.00 34 1012.9
20260831175234 69 118 0.9 0.9 0.00 0.00 0.00 35 1013.2
20260831174729 69 140 0.0 0.9 0.00 0.00 0.00 33 1013.0
20260831174225 68 108 0.0 0.0 0.00 0.00 0.00 34 1013.2
20260831173723 68 103 0.9 1.7 0.00 0.00 0.00 34 1013.1
20260831173212 67 133 0.9 0.9 0.00 0.00 0.00 35 1013.3
20260831172707 67 125 1.7 1.7 0.00 0.00 0.00 35 1013.3
20260831172202 67 98 1.7 1.7 0.00 0.00 0.00 34 1013.2
20260831171657 66 119 0.0 0.0 0.00 0.00 0.00 37 1013.4
20260831171154 64 117 0.9 1.7 0.00 0.00 0.00 38 1013.7
20260831170650 65 141 1.7 2.6 0.00 0.00 0.00 38 1013.6
20260831170147 64 141 0.9 0.9 0.00 0.00 0.00 39 1013.7
20260831165643 63 108 0.0 0.9 0.00 0.00 0.00 39 1013.5
20260831165139 61 95 0.0 0.0 0.00 0.00 0.00 41 1014.0
20260831164635 62 74 0.9 1.7 0.00 0.00 0.00 43 1013.7
20260831164130 62 126 0.0 0.0 0.00 0.00 0.00 42 1013.9
20260831163625 61 116 0.0 0.0 0.00 0.00 0.00 43 1014.2
20260831163121 61 125 0.0 0.0 0.00 0.00 0.00 43 1014.0
20260831162620 59 114 0.0 0.0 0.00 0.00 0.00 45 1014.0
20260831162118 58 143 0.9 0.9 0.00 0.00 0.00 47 1014.0
20260831161614 57 114 0.0 0.0 0.00 0.00 0.00 48 1014.3
20260831161111 57 92 0.9 0.9 0.00 0.00 0.00 48 1014.3
20260831160609 55 109 0.0 0.9 0.00 0.00 0.00 51 1014.4
20260831160105 54 136 0.0 0.9 0.00 0.00 0.00 50 1014.4
20260831155559 55 140 0.0 0.0 0.00 0.00 0.00 50 1014.5
20260831155055 53 129 0.0 0.9 0.00 0.00 0.00 53 1014.5
20260831154551 53 135 0.0 0.0 0.00 0.00 0.00 51 1014.5
20260831154050 54 121 0.0 0.0 0.00 0.00 0.00 51 1014.6
20260831153549 53 141 0.0 0.0 0.00 0.00 0.00 52 1014.6
20260831153047 53 132 0.0 0.0 0.00 0.00 0.00 54 1014.7
20260831152542 52 118 0.0 0.0 0.00 0.00 0.00 57 1014.7
20260831152037 51 104 0.0 0.9 0.00 0.00 0.00 56 1014.7
20260831151531 49 122 0.0 0.0 0.00 0.00 0.00 61 1014.7
20260831151031 48 140 0.0 0.0 0.00 0.00 0.00 62 1014.8
20260831150526 48 94 0.9 0.9 0.00 0.00 0.00 64 1014.5
20260831150023 46 133 0.0 0.0 0.00 0.00 0.00 65 1014.6
20260831145517 46 114 0.9 0.9 0.00 0.00 0.00 66 1014.5
20260831145013 45 100 0.9 0.9 0.00 0.00 0.00 68 1014.8
20260831144508 45 118 0.0 0.9 0.00 0.00 0.00 68 1014.7
20260831144004 44 126 0.0 0.0 0.00 0.00 0.00 71 1014.7
20260831143458 43 108 0.9 0.9 0.00 0.00 0.00 71 1014.5
20260831142953 42 113 0.0 0.0 0.00 0.00 0.00 73 1014.5
20260831142450 41 143 0.0 0.0 0.00 0.00 0.00 76 1014.5
20260831141944 41 143 0.0 0.0 0.00 0.00 0.00 77 1014.7
20260831141443 41 120 0.0 0.0 0.00 0.00 0.00 74 1014.4
20260831140938 40 120 0.0 0.0 0.00 0.00 0.00 77 1014.5
20260831140433 39 120 0.0 0.0 0.00 0.00 0.00 78 1014.4
20260831135932 39 115 0.0 0.0 0.00 0.00 0.00 78 1014.3
20260831135431 39 120 0.0 0.0 0.00 0.00 0.00 78 1014.2
20260831134926 39 129 0.0 0.0 0.00 0.00 0.00 78 1014.2
20260831134423 38 137 0.0 0.0 0.00 0.00 0.00 79 1014.2
20260831133922 37 136 0.0 0.0 0.00 0.00 0.00 80 1014.2
20260831133417 37 140 0.0 0.0 0.00 0.00 0.00 80 1013.9
20260831132912 37 132 0.0 0.0 0.00 0.00 0.00 81 1014.0
20260831132408 37 132 0.0 0.0 0.00 0.00 0.00 81 1014.0
20260831131907 36 125 0.0 0.0 0.00 0.00 0.00 81 1014.2
20260831131402 37 125 0.0 0.0 0.00 0.00 0.00 81 1014.0
20260831130858 37 126 0.0 0.0 0.00 0.00 0.00 81 1013.9
20260831130353 37 125 0.0 0.0 0.00 0.00 0.00 81 1013.9
20260831125852 37 127 0.0 0.0 0.00 0.00 0.00 82 1014.0
20260831125348 37 98 0.9 0.9 0.00 0.00 0.00 82 1014.0
20260831124843 38 145 0.0 0.0 0.00 0.00 0.00 82 1014.0
20260831124339 38 147 0.0 0.0 0.00 0.00 0.00 81 1014.3
20260831123838 38 142 0.0 0.0 0.00 0.00 0.00 82 1014.2
20260831123337 37 140 0.0 0.0 0.00 0.00 0.00 83 1013.9
20260831122832 37 138 0.0 0.0 0.00 0.00 0.00 82 1014.0
20260831122328 37 144 0.0 0.0 0.00 0.00 0.00 82 1013.9
20260831121828 38 146 0.0 0.9 0.00 0.00 0.00 81 1013.9
20260831121324 38 123 0.0 0.0 0.00 0.00 0.00 79 1013.9
20260831120820 38 122 0.0 0.0 0.00 0.00 0.00 78 1013.8
20260831120313 39 121 0.0 0.0 0.00 0.00 0.00 77 1013.9
20260831115809 39 117 0.0 0.0 0.00 0.00 0.00 77 1013.8
20260831115306 39 89 0.9 0.9 0.00 0.00 0.00 77 1013.8
20260831114804 39 102 0.0 0.0 0.00 0.00 0.00 76 1013.8
20260831114259 39 178 0.9 0.9 0.00 0.00 0.00 76 1013.9
20260831113754 39 149 0.9 0.9 0.00 0.00 0.00 76 1013.8
20260831113248 39 155 0.9 0.9 0.00 0.00 0.00 76 1013.8
20260831112747 39 145 0.0 0.0 0.00 0.00 0.00 75 1014.0
20260831112243 39 115 0.0 0.0 0.00 0.00 0.00 76 1014.0
20260831111738 39 115 0.0 0.0 0.00 0.00 0.00 77 1013.8
20260831111235 39 118 0.0 0.0 0.00 0.00 0.00 77 1013.8
20260831110730 39 129 0.0 0.0 0.00 0.00 0.00 77 1013.8
20260831110225 40 130 0.0 0.0 0.00 0.00 0.00 76 1014.0
20260831105723 40 129 0.0 0.0 0.00 0.00 0.00 77 1014.2
20260831105219 40 131 0.9 0.9 0.00 0.00 0.00 78 1013.9